Simultaneous Nadir Overpasses (SNOs) Predictions

Prediction of SNOs between METOP-B and TERRA Satellite Orbit:

Table of predicted SNOs for the next 14.0 days since TLE Epoch: 2/2/2013
Index Date (METOP-B) Time (METOP-B) Lat,Lon (METOP-B) SZA (METOP-B ) Date (TERRA) Time (TERRA) Lat,Lon (TERRA) SZA (TERRA ) Distance(km) Time Diff (sec)
1 02/04/2013 18:43:12 -81.27, 125.60 80.50 02/04/2013 18:43:50 -81.27, 125.57 80.50 0.89 38
2 02/04/2013 19:33:52 81.28, -66.52 99.55 02/04/2013 19:33:16 81.27, -66.70 99.51 3.33 36
3 02/07/2013 14:17:35 -81.28,-167.65 81.33 02/07/2013 14:18:03 -81.28,-167.75 81.33 1.71 28
4 02/07/2013 15:08:16 81.28, -0.16 98.68 02/07/2013 15:07:29 81.28, -0.04 98.67 2.01 47
5 02/10/2013 09:51:59 -81.28,-101.35 82.25 02/10/2013 09:52:17 -81.27,-101.52 82.26 3.00 18
6 02/10/2013 10:42:39 81.28, 66.52 97.81 02/10/2013 10:41:42 81.29, 66.54 97.79 0.85 57
7 02/13/2013 05:26:22 -81.27, -35.11 83.19 02/13/2013 05:26:29 -81.27, -34.99 83.18 2.10 7
8 02/13/2013 06:17:02 81.28, 132.74 96.86 02/13/2013 06:15:55 81.27, 132.68 96.82 1.44 67
9 02/16/2013 00:10:05 81.27,-136.00 95.88 02/16/2013 00:11:15 81.27,-136.18 95.88 3.00 70




NCC Satellite Simultaneous Nadir Overpasses (SNOs) Prediction Service
